TimeCDT,TemperatureF,Dew PointF,Humidity,Sea Level PressureIn,VisibilityMPH,Wind Direction,Wind SpeedMPH,Gust SpeedMPH,PrecipitationIn,Events,Conditions,WindDirDegrees,DateUTC
12:10 AM,80.6,73.4,79,29.93,10.0,South,11.5,-,N/A,,Mostly Cloudy,170,2013-06-02 05:10:00
12:51 AM,79.0,73.9,84,29.88,10.0,SE,12.7,-,N/A,,Mostly Cloudy,140,2013-06-02 05:51:00
1:51 AM,79.0,73.0,82,29.86,10.0,SSE,13.8,-,N/A,,Overcast,150,2013-06-02 06:51:00
2:24 AM,78.8,73.4,83,29.93,10.0,SSE,8.1,-,N/A,,Overcast,150,2013-06-02 07:24:00
2:51 AM,79.0,73.9,84,29.86,10.0,SE,8.1,-,N/A,,Overcast,140,2013-06-02 07:51:00
2:58 AM,78.8,73.4,83,29.92,10.0,SE,8.1,-,N/A,,Overcast,140,2013-06-02 07:58:00
3:20 AM,78.8,73.4,83,29.94,10.0,Variable,4.6,-,N/A,,Overcast,0,2013-06-02 08:20:00
3:51 AM,79.0,73.0,82,29.88,10.0,South,5.8,-,N/A,,Overcast,170,2013-06-02 08:51:00
4:51 AM,78.1,73.9,87,29.90,10.0,SE,3.5,-,N/A,,Overcast,140,2013-06-02 09:51:00
5:03 AM,78.8,73.4,83,29.95,6.0,Calm,Calm,-,0.00,Rain,Light Rain,0,2013-06-02 10:03:00
5:45 AM,77.0,73.4,89,29.98,8.0,ENE,11.5,-,0.00,Rain-Thunderstorm,Light Thunderstorms and Rain,70,2013-06-02 10:45:00
5:51 AM,73.0,69.1,87,29.94,8.0,NNE,23.0,31.1,0.00,Rain-Thunderstorm,Light Thunderstorms and Rain,30,2013-06-02 10:51:00
6:27 AM,68.0,66.2,94,30.00,4.0,SW,5.8,-,0.16,Rain-Thunderstorm,Thunderstorms and Rain,230,2013-06-02 11:27:00
6:51 AM,68.0,66.0,93,29.94,4.0,ESE,4.6,-,0.43,Rain-Thunderstorm,Heavy Thunderstorms and Rain,120,2013-06-02 11:51:00
6:55 AM,68.0,66.2,94,29.99,4.0,East,3.5,-,0.02,Rain-Thunderstorm,Thunderstorms and Rain,90,2013-06-02 11:55:00
7:05 AM,68.0,66.2,94,29.97,8.0,NE,9.2,-,0.03,Rain-Thunderstorm,Light Thunderstorms and Rain,40,2013-06-02 12:05:00
7:51 AM,69.1,66.0,90,29.96,8.0,NNW,5.8,-,0.03,Rain-Thunderstorm,Light Thunderstorms and Rain,330,2013-06-02 12:51:00
8:02 AM,69.8,66.2,88,30.04,10.0,WNW,5.8,-,0.00,Rain-Thunderstorm,Light Thunderstorms and Rain,300,2013-06-02 13:02:00
8:48 AM,69.8,66.2,88,30.06,10.0,NNE,3.5,-,0.00,,Overcast,30,2013-06-02 13:48:00
8:51 AM,70.0,66.9,90,30.01,10.0,NE,3.5,-,0.00,,Overcast,50,2013-06-02 13:51:00
9:10 AM,69.8,68.0,94,30.05,10.0,North,3.5,-,N/A,,Overcast,360,2013-06-02 14:10:00
9:51 AM,71.1,66.9,87,30.01,10.0,NNE,6.9,-,N/A,,Overcast,30,2013-06-02 14:51:00
10:51 AM,72.0,66.9,84,30.01,10.0,NNE,9.2,-,N/A,,Mostly Cloudy,20,2013-06-02 15:51:00
11:51 AM,78.1,66.0,66,29.99,10.0,NE,5.8,-,N/A,,Mostly Cloudy,40,2013-06-02 16:51:00
12:51 PM,82.0,64.9,56,29.99,10.0,NE,6.9,-,N/A,,Mostly Cloudy,40,2013-06-02 17:51:00
1:51 PM,84.9,62.1,46,29.97,10.0,ENE,8.1,-,N/A,,Scattered Clouds,60,2013-06-02 18:51:00
2:51 PM,87.1,62.1,43,29.95,10.0,East,8.1,-,N/A,,Partly Cloudy,80,2013-06-02 19:51:00
3:51 PM,88.0,61.0,40,29.93,10.0,East,11.5,-,N/A,,Partly Cloudy,90,2013-06-02 20:51:00
4:51 PM,88.0,57.0,35,29.90,10.0,East,8.1,-,N/A,,Partly Cloudy,80,2013-06-02 21:51:00
5:51 PM,87.1,60.1,40,29.87,10.0,ENE,6.9,-,N/A,,Mostly Cloudy,70,2013-06-02 22:51:00
6:51 PM,86.0,60.1,41,29.87,10.0,East,6.9,-,N/A,,Mostly Cloudy,80,2013-06-02 23:51:00
7:51 PM,82.9,57.9,42,29.86,10.0,ENE,6.9,-,N/A,,Scattered Clouds,70,2013-06-03 00:51:00
8:51 PM,78.1,61.0,56,29.87,10.0,East,5.8,-,N/A,,Scattered Clouds,80,2013-06-03 01:51:00
9:51 PM,75.0,61.0,62,29.88,10.0,East,4.6,-,N/A,,Scattered Clouds,80,2013-06-03 02:51:00
10:51 PM,75.9,61.0,60,29.88,10.0,ENE,3.5,-,N/A,,Partly Cloudy,60,2013-06-03 03:51:00
11:51 PM,73.9,62.1,66,29.92,10.0,Calm,Calm,-,N/A,,Partly Cloudy,0,2013-06-03 04:51:00